Tracking 18980 objects as of 19-Feb-2018
HD Live streaming from Space Station
objects crossing your sky now

FENGYUN 1C DEB

Track FENGYUN 1C DEB now!
10-day predictions


NORAD ID: 30514
Int'l Code: 1999-025AJC
Perigee: 672.8 km
Apogee: 948.9 km
Inclination: 98.7 °
Period: 101.0 minutes
Semi major axis: 7181 km
RCS: 0.0192 m2 (small)
Launch date: May 10, 1999
Source: People's Republic of China (PRC)
Launch site: Taiyaun Space Center, China (TSC)

Note: This is SATELLITE DEBRIS
aabbcc
Your satellite tracking list
Your tracking list is empty




NASA's NSSDC Master Catalog

Two Line Element Set (TLE):
1 30514U 99025AJC 18049.06269864  .00000201  00000-0  85394-4 0  9997
2 30514  98.7308  85.3642 0192197 192.5166 167.1205 14.26413688574626
Source of the keplerian elements: AFSPC